Location: Sternwarte auf dem Internationalen Platz Vogelsang IP
(50.5721°N, 6.4398°E)
Time: 19:43:51
(UTC+01:00)

A-11 Canister half - Pass Details

Date: 19 December 2025
Orbit: 1511 x 1688 km, 47.2° (Epoch: 19 January)

Event Time Altitude Azimuth Distance (km) Brightness Sun altitude
Rises 12:58:25 0° 202° (SSW) 4,637 13.0 15.8°
Reaches altitude 10° 13:01:55 10° 192° (SSW) 3,661 13.7 15.7°
Maximum altitude 13:09:24 29° 137° (SE) 2,509 10.8 15.5°
Drops below altitude 10° 13:17:01 10° 82° (E) 3,736 10.9 15.3°
Sets 13:20:36 0° 72° (ENE) 4,747 11.3 15.2°
